{"data":{"norad_id":56321,"epoch":"2026-09-20T23:05:32.587008Z","epoch_age_seconds":68794,"freshness":"FRESH","line1":"1 56321U 23058E   26263.96218272 -.00335274  00000+0 -10896-1 0  9991","line2":"2 56321  97.2848 260.6815 0001766 100.7201 259.4241 15.33306853187354","mean_motion":15.33306853,"eccentricity":0.0001766,"inclination_deg":97.2848,"raan_deg":260.6815,"arg_perigee_deg":100.7201,"mean_anomaly_deg":259.4241,"bstar":-0.010896,"rev_number":18735,"period_min":93.914665364115,"perigee_km":464.74556710377,"apogee_km":467.16290012749,"semimajor_km":6844.0912336156,"source":"CELESTRAK","updated_at":"2026-09-21T09:00:33.401222Z"}}